| time (UTC) | temp F | wind direction | speed MPH | gust MPH | rain 1hr in | rain 24hr in | rain mn in | humidity % | barometer mb |
| 20260504191553 | 71 | 282 | 5.0 | 12.0 | 0.00 | 0.00 | 0.00 | 37 | 1010.1 |
| 20260504190052 | 71 | 211 | 4.0 | 20.0 | 0.00 | 0.00 | 0.00 | 37 | 1010.2 |
| 20260504184544 | 70 | 152 | 3.0 | 13.0 | 0.00 | 0.00 | 0.00 | 40 | 1010.5 |
| 20260504183042 | 70 | 189 | 5.0 | 10.0 | 0.00 | 0.00 | 0.00 | 40 | 1010.6 |
| 20260504181540 | 69 | 254 | 8.0 | 15.0 | 0.00 | 0.00 | 0.00 | 38 | 1011.0 |
| 20260504180038 | 69 | 88 | 3.0 | 12.0 | 0.00 | 0.00 | 0.00 | 37 | 1011.2 |
| 20260504174538 | 69 | 253 | 4.0 | 14.0 | 0.00 | 0.00 | 0.00 | 40 | 1011.4 |
| 20260504173039 | 68 | 152 | 6.0 | 12.0 | 0.00 | 0.00 | 0.00 | 38 | 1011.5 |
| 20260504171532 | 68 | 184 | 4.0 | 14.0 | 0.00 | 0.00 | 0.00 | 41 | 1011.8 |
| 20260504081512 | 49 | 200 | 4.0 | 8.0 | 0.00 | 0.00 | 0.00 | 51 | 1014.4 |
| 20260504044554 | 51 | 193 | 4.0 | 10.0 | 0.00 | 0.00 | 0.00 | 49 | 1014.3 |
| 20260504043056 | 51 | 209 | 3.0 | 10.0 | 0.00 | 0.00 | 0.00 | 50 | 1014.3 |
| 20260504041548 | 51 | 210 | 6.0 | 11.0 | 0.00 | 0.00 | 0.00 | 49 | 1014.1 |
| 20260504040046 | 51 | 212 | 5.0 | 10.0 | 0.00 | 0.00 | 0.00 | 50 | 1014.0 |
| 20260504034552 | 51 | 217 | 5.0 | 10.0 | 0.00 | 0.00 | 0.00 | 50 | 1013.8 |
| 20260504033043 | 51 | 176 | 4.0 | 8.0 | 0.00 | 0.00 | 0.00 | 49 | 1013.8 |
| 20260504031544 | 51 | 202 | 4.0 | 9.0 | 0.00 | 0.00 | 0.00 | 49 | 1013.8 |
| 20260504030042 | 51 | 206 | 4.0 | 7.0 | 0.00 | 0.00 | 0.00 | 50 | 1013.7 |
| 20260504024547 | 51 | 217 | 2.0 | 7.0 | 0.00 | 0.00 | 0.00 | 49 | 1013.7 |
| 20260504023041 | 52 | 202 | 2.0 | 6.0 | 0.00 | 0.00 | 0.00 | 48 | 1013.8 |
| 20260504021541 | 52 | 224 | 2.0 | 6.0 | 0.00 | 0.00 | 0.00 | 48 | 1013.8 |
| 20260504020042 | 51 | 205 | 1.0 | 3.0 | 0.00 | 0.00 | 0.00 | 52 | 1013.7 |
| 20260504014541 | 51 | 191 | 1.0 | 6.0 | 0.00 | 0.00 | 0.00 | 49 | 1013.6 |
| 20260504013054 | 51 | 156 | 1.0 | 5.0 | 0.00 | 0.00 | 0.00 | 49 | 1013.5 |
| 20260504011538 | 52 | 213 | 1.0 | 2.0 | 0.00 | 0.00 | 0.00 | 48 | 1013.5 |
| 20260504010040 | 53 | 222 | 1.0 | 3.0 | 0.00 | 0.00 | 0.00 | 46 | 1013.4 |
| 20260504004536 | 54 | 221 | 1.0 | 4.0 | 0.00 | 0.00 | 0.00 | 44 | 1013.3 |
| 20260504003036 | 55 | 223 | 1.0 | 4.0 | 0.00 | 0.00 | 0.00 | 42 | 1013.0 |
| 20260504001538 | 56 | 221 | 1.0 | 7.0 | 0.00 | 0.00 | 0.00 | 40 | 1012.8 |
| 20260504000034 | 57 | 223 | 1.0 | 4.0 | 0.00 | 0.00 | 0.00 | 39 | 1012.7 |
| 20260503234634 | 57 | 192 | 1.0 | 6.0 | 0.00 | 0.00 | 0.00 | 37 | 1012.5 |
| 20260503233033 | 59 | 240 | 2.0 | 9.0 | 0.00 | 0.00 | 0.00 | 36 | 1012.5 |
| 20260503231533 | 59 | 196 | 3.0 | 10.0 | 0.00 | 0.00 | 0.00 | 35 | 1012.4 |
| 20260503230041 | 59 | 188 | 5.0 | 15.0 | 0.00 | 0.00 | 0.00 | 34 | 1012.3 |
| 20260503224531 | 60 | 266 | 5.0 | 12.0 | 0.00 | 0.00 | 0.00 | 33 | 1012.2 |
| 20260503223030 | 60 | 261 | 4.0 | 9.0 | 0.00 | 0.00 | 0.00 | 34 | 1012.2 |
| 20260503221531 | 60 | 252 | 1.0 | 9.0 | 0.00 | 0.00 | 0.00 | 34 | 1012.2 |
| 20260503220028 | 60 | 213 | 5.0 | 13.0 | 0.00 | 0.00 | 0.00 | 33 | 1012.3 |
| 20260503214537 | 59 | 252 | 6.0 | 14.0 | 0.00 | 0.00 | 0.00 | 32 | 1012.3 |
| 20260503213028 | 60 | 224 | 3.0 | 11.0 | 0.00 | 0.00 | 0.00 | 33 | 1012.3 |
| 20260503211528 | 60 | 284 | 2.0 | 12.0 | 0.00 | 0.00 | 0.00 | 32 | 1012.2 |
| 20260503210025 | 59 | 266 | 7.0 | 16.0 | 0.00 | 0.00 | 0.00 | 31 | 1012.2 |
| 20260503204524 | 59 | 226 | 3.0 | 19.0 | 0.00 | 0.00 | 0.00 | 31 | 1012.2 |
| 20260503203032 | 59 | 263 | 4.0 | 13.0 | 0.00 | 0.00 | 0.00 | 31 | 1012.3 |
| 20260503201522 | 59 | 230 | 3.0 | 15.0 | 0.00 | 0.00 | 0.00 | 33 | 1012.4 |
| 20260503200020 | 58 | 262 | 8.0 | 15.0 | 0.00 | 0.00 | 0.00 | 33 | 1012.6 |
| 20260503194518 | 58 | 225 | 5.0 | 11.0 | 0.00 | 0.00 | 0.00 | 34 | 1012.7 |
| 20260503193033 | 57 | 320 | 8.0 | 22.0 | 0.00 | 0.00 | 0.00 | 34 | 1013.0 |